Zurück zum Katalog

STARLINK-33970

AktivKommunikationVLEO
NORAD 64106·PAYLOAD·🇺🇸 United States

Gestartet May 23, 2025 von Vandenberg Space Force Base

Loading…

Nächste Überflüge (nächste 24 Stunden)

TLE

AktuellSource: CelesTrak SupGP

Epoche: Sep 15, 2026, 02:31 UTC

1 64106C 25110L   26258.10534722 -.00057907  00000+0 -17108-2 0  2589
2 64106  53.1583 223.2720 0001368  88.7149 310.8682 15.34421608    10

Verfolge STARLINK-33970 in Echtzeit mit AllMySat

Download on the App Store